#timestamp,LO_Frequency,Hit 
1503046815.4,286046999.1,N
1503046835.3,286046998.9,N
1503046855.1,286046999.6,N
1503046875.8,286046995.2,N
1503046895.7,286046991.8,P
1503046915.5,286046995.7,N
1503046935.3,286046995.0,N
1503046955.2,286046996.4,N
1503046975.0,286046995.0,N
1503046975.9,286046995.0,P
1503046995.8,286046998.3,P
1503047015.6,286046996.6,N
1503047035.4,286046997.0,N
1503047055.2,286046997.4,N
1503047075.1,286046995.3,P
1503047076.0,286046995.3,P
1503047095.8,286047000.2,N
1503047115.7,286047000.9,N
1503047135.5,286047001.8,N
1503047155.3,286047004.2,N
1503047175.1,286047003.5,N
1503047195.9,286047003.0,N
1503047215.7,286047002.2,N
1503047235.5,286047000.2,N
1503047255.4,286047003.9,N
1503047275.2,286047004.3,N
1503047295.0,286046999.7,N
1503047295.9,286046999.7,N
1503047315.8,286047000.9,N
1503047335.6,286046998.7,N
1503047355.4,286046997.9,N
1503047375.3,286046995.3,N
1503047395.1,286046995.4,N
1503047396.0,286046995.4,N
1503047415.8,286046995.2,N
1503047435.7,286046995.6,N
1503047455.5,286046995.7,N
1503047475.3,286046995.8,N
1503047495.1,286046994.6,N
1503047515.9,286046994.9,N
1503047535.7,286046995.8,N
1503047555.5,286046995.7,N
1503047575.4,286046995.8,N
1503047595.2,286046996.2,N
1503047615.0,286046994.8,N
1503047615.9,286046994.8,N
1503047635.8,286046994.1,N
1503047655.6,286046992.1,N
1503047675.4,286046991.3,N
1503047695.3,286046991.2,N
1503047715.1,286046991.1,N
1503047716.0,286046991.1,N
1503047735.8,286046990.9,N
1503047755.7,286046989.7,N
1503047775.5,286046988.8,P
1503047795.3,286046994.7,N
1503047815.2,286046996.1,N
1503047835.9,286046995.1,N
1503047855.7,286046997.3,N
1503047875.6,286046995.3,N
1503047895.4,286046997.4,N
1503047915.2,286046993.9,N
1503047935.1,286046994.4,N
1503047936.0,286046994.4,N
1503047955.8,286046991.7,P
1503047975.6,286046998.4,N
1503047995.5,286047000.9,N
1503048015.3,286047000.9,N
1503048035.1,286047000.3,N
1503048055.9,286046998.8,N
1503048075.7,286046997.8,N
1503048095.5,286046999.1,N
1503048115.3,286046999.4,N
1503048135.2,286046998.3,N
1503048155.0,286046998.6,N
1503048155.9,286046998.6,N
1503048175.7,286046996.5,N
1503048195.6,286046996.5,N
1503048215.4,286046997.3,N
1503048235.2,286046995.9,N
1503048255.1,286046994.2,N
1503048256.0,286046994.2,N
1503048275.8,286046994.8,N
1503048295.6,286046994.5,N
1503048315.5,286046992.2,P
1503048335.3,286046994.9,N
1503048355.1,286046996.8,N
1503048375.9,286046995.4,N
1503048395.7,286046997.3,N
1503048415.5,286046995.0,N
1503048435.4,286046993.9,P
1503048455.2,286046996.9,P
1503048475.0,286046997.6,N
1503048475.9,286046997.6,N
1503048495.8,286046997.6,N
1503048515.6,286046996.5,N
1503048535.4,286046999.4,N
1503048555.3,286046999.4,N
1503048575.1,286046999.4,N
1503048576.0,286046999.4,N
1503048595.8,286046999.1,N
1503048615.7,286046998.5,N
1503048635.5,286047000.8,N
1503048655.3,286046998.4,N
1503048675.1,286047001.1,N
1503048695.9,286046998.7,N
1503048715.7,286046999.4,N
1503048735.5,286046999.5,N
1503048755.4,286046999.6,N
1503048775.2,286046995.1,N
1503048795.0,286046995.3,N
1503048795.9,286046995.3,N
1503048815.8,286046997.3,N
1503048835.6,286046995.0,N
1503048855.4,286046994.3,N
1503048875.3,286046996.1,N
1503048895.1,286046995.6,N
1503048896.0,286046995.6,N
1503048915.8,286046993.8,P
1503048935.7,286046995.0,N
1503048955.5,286046996.2,N
1503048975.3,286046994.4,P
1503048995.2,286046998.2,N
1503049015.0,286047000.4,N
1503049015.9,286047000.4,N
1503049035.7,286047000.1,N
1503049055.6,286047000.1,N
1503049075.4,286047000.1,N
1503049095.2,286046999.0,N
1503049115.1,286046999.5,N
1503049116.0,286046999.5,N
1503049135.8,286046999.2,N
1503049155.6,286046996.6,N
1503049175.5,286046997.0,N
1503049195.3,286046996.8,N
1503049215.1,286046996.1,N
1503049235.9,286046995.9,N
1503049255.7,286046991.9,P
1503049275.5,286046993.4,N
1503049295.4,286046993.5,N
1503049315.2,286046996.4,N
1503049335.0,286046994.1,N
1503049335.9,286046994.1,N
1503049355.8,286046991.8,P
1503049375.6,286046997.3,N
1503049395.4,286046996.9,N
1503049415.3,286046999.4,N
1503049435.1,286046998.8,N
1503049436.0,286046998.8,N
1503049455.8,286047001.0,N
1503049475.7,286047000.2,N
1503049495.5,286047000.0,N
1503049515.3,286046998.3,N
1503049535.1,286046999.2,N
1503049555.9,286046999.5,N
1503049575.7,286046997.0,N
1503049595.5,286046996.7,N
1503049615.4,286046997.2,N
1503049635.2,286046997.5,N
1503049655.0,286046995.1,N
1503049655.9,286046995.1,N
1503049675.8,286046998.0,N
1503049695.6,286046996.4,N
1503049715.4,286046993.5,P
1503049735.3,286046995.5,N
1503049755.1,286046996.3,N
1503049756.0,286046996.3,N
1503049775.8,286046993.8,P
1503049795.7,286046999.2,N
1503049815.5,286046998.4,N
1503049835.3,286046999.4,N
1503049855.2,286046998.4,N
1503049875.9,286046998.5,N
1503049895.7,286046998.8,N
1503049915.6,286046999.3,N
1503049935.4,286046999.0,N
1503049955.2,286046998.4,N
1503049975.1,286046999.2,N
1503049976.0,286046999.2,N
1503049995.8,286046998.9,N
1503050015.6,286046996.6,N
1503050035.4,286046999.6,N
1503050055.3,286046997.1,N
1503050075.1,286046996.1,N
1503050095.8,286046995.7,N
1503050115.7,286046996.0,N
1503050135.5,286046991.9,P
1503050155.3,286046994.8,N
1503050175.2,286046992.0,P
1503050195.0,286046993.3,N
1503050195.9,286046993.3,P
1503050215.8,286047001.0,N
1503050235.6,286047000.8,N
1503050255.4,286047000.7,N
1503050275.3,286047000.4,N
1503050295.1,286047000.0,N
1503050296.0,286047000.0,N
1503050315.8,286047002.5,N
1503050335.6,286047002.5,N
1503050355.5,286047000.1,N
1503050375.3,286046999.8,N
1503050395.1,286047000.5,N
